Location: Brachbach
(49.1847°N, 9.7240°E)
Time: 07:20:52
(UTC+00:00)

AO-73 - Visible Passes

Search period start: 11 March 2026 00:00
Search period end: 21 March 2026 00:00
Orbit: 517 x 568 km, 97.8° (Epoch: 10 March)

Date Brightness Start Highest point End Pass type
(mag) Time Alt. Az. Time Alt. Az. Time Alt. Az.
11 Mar ? 02:56:22 10° NNE 02:59:22 43° ENE 02:59:22 43° ENE visible
11 Mar ? 04:31:52 10° NNW 04:34:19 16° WNW 04:34:56 16° WNW visible
12 Mar ? 02:49:48 10° NNE 02:52:50 39° ENE 02:52:50 39° ENE visible
12 Mar ? 04:25:02 10° NNW 04:27:46 19° WNW 04:28:23 18° WNW visible
13 Mar ? 02:43:14 10° NNE 02:46:16 34° ENE 02:46:16 34° ENE visible
13 Mar ? 04:18:13 10° NNW 04:21:10 21° WNW 04:21:50 20° W visible
14 Mar ? 02:36:39 10° NNE 02:39:41 30° E 02:39:41 30° E visible
14 Mar ? 04:11:25 10° N 04:14:33 25° WNW 04:15:14 23° W visible
15 Mar ? 02:30:07 10° NE 02:33:05 26° E 02:33:05 26° E visible
15 Mar ? 04:04:36 10° N 04:07:55 28° WNW 04:08:39 26° W visible
16 Mar ? 02:23:35 10° NE 02:26:28 22° E 02:26:28 22° E visible
16 Mar ? 03:57:48 10° N 04:01:15 33° WNW 04:02:01 30° W visible
17 Mar ? 02:17:03 10° NE 02:19:50 19° E 02:19:50 19° E visible
17 Mar ? 03:51:01 10° N 03:54:34 39° WNW 03:55:23 34° W visible
18 Mar ? 02:10:35 10° NE 02:13:02 16° E 02:13:11 16° E visible
18 Mar ? 03:44:12 10° N 03:47:51 46° WNW 03:48:45 38° WSW visible
19 Mar ? 02:04:11 10° ENE 02:06:13 14° E 02:06:31 14° E visible
19 Mar ? 03:37:23 10° N 03:41:07 55° WNW 03:42:04 41° WSW visible
20 Mar ? 01:57:56 10° ENE 01:59:21 12° E 01:59:50 12° E visible
20 Mar ? 03:30:35 10° N 03:34:22 66° WNW 03:35:23 44° SW visible
